Regional Weather Roundup
Issued by NWS

Home | Current Version | Previous Version | Graphics & Text | Print | Product List | Glossary On
Versions: 1 2 3 4 5 6 7 8 9 10 11 12 13 14 15 16 17 18 19 20 21 22 23 24 25 26 27 28 29 30 31 32 33 34 35 36 37 38 39 40 41 42 43 44 45 46 47 48 49 50
000
ASUS43 KMKX 251711
RWRWI

WISCONSIN REGIONAL WEATHER ROUNDUP
NATIONAL WEATHER SERVICE MILWAUKEE/SULLIVAN WI
1200 PM CDT SUN JUN 25 2017

NOTE: "FAIR" INDICATES FEW OR NO CLOUDS BELOW 12,000 FEET WITH NO
SIGNIFICANT WEATHER AND/OR OBSTRUCTIONS TO VISIBILITY.

WIZ001-002-006>008-014>016-023>028-251800-
NORTHWEST WISCONSIN

CITY           SKY/WX    TMP DP  RH WIND       PRES   REMARKS
SUPERIOR ARPT  NOT AVBL
ASHLAND        CLOUDY    60  53  77 CALM      30.03F
HAYWARD        HVY RAIN  53  50  89 VRB6G18   30.06R VSB 1
SIREN          CLOUDY    56  52  86 NW10G16   30.10S
CUMBERLAND     LGT RAIN  54  52  94 NW15G24   30.09R
RICE LAKE      HVY RAIN  59  53  81 W14G20    30.09S
CHETEK         RAIN      58  55  90 W8        30.08S
LADYSMITH      CLOUDY    60  52  73 W7        30.08S
EAU CLAIRE     CLOUDY    59  50  72 W13       30.09S
MENOMONIE      CLOUDY    58  52  81 W14G20    30.11S
NEW RICHMOND   CLOUDY    57  50  78 W15G23    30.12S
OSCEOLA        CLOUDY    58  54  85 W10G18    30.15R
$$

WIZ003>005-009-010-017-018-251800-
NORTH CENTRAL WISCONSIN

CITY           SKY/WX    TMP DP  RH WIND       PRES   REMARKS
MANITOWISH WTR PTSUNNY   61  50  67 NW5       30.02F
ARBOR VITAE    PTSUNNY   59  51  73 NW5       30.02F
WOODRUFF       PTSUNNY   59  51  73 NW5       30.02F
RHINELANDER    MOSUNNY   62  51  67 NW8       30.03F
EAGLE RIVER    MOSUNNY   60  45  57 CALM      30.01F
LAND O LAKES   SUNNY     62  50  63 N5        30.03F
PHILLIPS       CLOUDY    58  53  83 W5        30.04S
TOMAHAWK       NOT AVBL
MEDFORD        CLOUDY    56  50  79 NW7       30.07S
MERRILL        RAIN      56  53  92 W9        30.06S
$$

WIZ029-030-035-036-043>047-251800-
CENTRAL WISCONSIN

CITY           SKY/WX    TMP DP  RH WIND       PRES   REMARKS
WAUSAU         CLOUDY    58  51  78 W10       30.04S
MOSINEE        CLOUDY    59  52  77 W12       30.07S
MARSHFIELD     CLOUDY    61  50  67 W10       30.06F
STEVENS POINT  CLOUDY    59  48  66 W12G18    30.07F
WAUPACA        PTSUNNY   64  51  62 W14G25    30.06R
WAUTOMA        CLOUDY    63  50  62 NW12G22   30.08S
WISC RAPIDS    PTSUNNY   63  51  65 NW12G18   30.09F
CAMP DOUGLAS   PTSUNNY   61  54  77 W10       30.10S
$$

WIZ011>013-019>022-031-037>040-048>050-251800-
NORTHEAST WISCONSIN

CITY           SKY/WX    TMP DP  RH WIND       PRES   REMARKS
ANTIGO         LGT RAIN  58  52  79 W15       30.04S
SHAWANO        CLOUDY    65  51  60 W8        30.01S
OCONTO         CLOUDY    65  50  58 NW8G20    30.00S
STURGEON BAY     N/A     61  51  70 W8          N/A
GREEN BAY      CLOUDY    66  52  60 W13       30.01F
MANITOWOC      CLOUDY    67  50  54 NW13      30.02S
APPLETON       PTSUNNY   63  48  59 W13G22    30.02S
CLINTONVILLE   PTSUNNY   64  52  63 NW17      30.02F
OSHKOSH        MOSUNNY   66  52  60 W15G21    30.04R
$$

WIZ032>034-041-042-053>061-251800-
SOUTHWEST WISCONSIN

CITY           SKY/WX    TMP DP  RH WIND       PRES   REMARKS
LA CROSSE      PTSUNNY   69  52  54 W12       30.12S
SPARTA         CLOUDY    61  52  72 W14       30.12R
VIROQUA        CLOUDY    58  53  85 W9        30.14S
BOSCOBEL       CLOUDY    62  48  60 W12       30.14R
PRAIRIE DU CHI CLOUDY    60  47  60 NW10      30.15S
PLATTEVILLE    CLOUDY    62  51  65 W13G21    30.15S
$$

WIZ056-057-062-063-064-067-068-251800-
SOUTH CENTRAL WISCONSIN

CITY           SKY/WX    TMP DP  RH WIND       PRES   REMARKS
REEDSBURG      CLOUDY    59  50  71 W13       30.11S
BARABOO/DELLS  CLOUDY    60  47  63 W14G22    30.10S
LONE ROCK      CLOUDY    62  49  62 W10       30.12S
MINERAL POINT  CLOUDY    61  52  72 W15       30.13S
MADISON        PTSUNNY   61  49  64 NW9G17    30.10S
MIDDLETON      CLOUDY    63  51  64 NW12      30.11S
WATERTOWN      PTSUNNY   64  51  62 W15G21    30.08S
MONROE         PTSUNNY   63  46  55 W21       30.12S
JANESVILLE     PTSUNNY   68  50  52 W15G21    30.10S
$$

WIZ051-052-058>065-066-070>072-251800-
SOUTHEAST WISCONSIN

CITY           SKY/WX    TMP DP  RH WIND       PRES   REMARKS
MILWAUKEE      PTSUNNY   68  48  48 W13G26    30.06S
WAUKESHA       MOSUNNY   64  48  55 W14G23    30.08S
MILWAUKEE/TIMM PTSUNNY   66  45  45 W17G26    30.07R
RACINE         MOSUNNY   68  47  46 W15G25    30.08S
KENOSHA        PTSUNNY   66  49  54 W16       30.08S
FOND DU LAC    PTSUNNY   67  50  54 W13G26    30.05R
SHEBOYGAN      PTSUNNY   65  52  62 W15       30.02S
WEST BEND      PTSUNNY   64  50  59 W15G25    30.05S
JUNEAU         MOSUNNY   62  51  66 W9G16     30.09R
$$

LSZ147-162-251800-
LAKE SUPERIOR

STATION/POSITION TIME  TEMP    WIND        PRES    WAVE
                       AIR SEA DIR/SP/G            HT/PER
                 (UTC) (F)     (DEG/KT/KT) (MB)    (FT/S)
W MID LAKE BUOY  1650   45 39  350/  6/  6 1017.3R   0
DEVILS ISLAND    1700   55     220/  5/  6 1016.8F
SAXON HARBOR     1640   57     330/  4/  5 1016.6S
$$

LMZ867-665-643>646-251800-
LAKE MICHIGAN

STATION/POSITION TIME  TEMP    WIND        PRES    WAVE
                       AIR SEA DIR/SP/G            HT/PER
                 (UTC) (F)     (DEG/KT/KT) (MB)    (FT/S)
CHAMBERS ISLAND  1640   62     300/  5/  9 1015.2R
S GREEN BAY BUOY 1700   62     290/  2/  4 1015.8
N MID LAKE BUOY  1650   56 57  300/  4/  4 1016.2R   1/ 4
NORTHPORT PIER   1640   60     300/  7/ 10 1015.6R
KEWAUNEE LAKESHO 1648   64     300/  9/ 13 1015.7R
SHEBOYGAN LAKESH 1700   65     290/ 16/ 18 1016.3S
PORT WASHINGTON  1640   69     280/  8/ 17 1017.9R
ATWATER BUOY     1609   63 58  240/ 16/ 19 1017.5F
MILWAUKEE LAKESH 1650   65     270/ 13/ 15   N/A
S MID LAKE BUOY  1650   61 61  270/ 14/ 16 1018.3R   3/ 5
KENOSHA   LAKESH 1700   66     270/ 14/ 19 1018.6
$$

TC  - TEMPERATURE IN CELSIUS
VSB - VISIBILITY IN STATUTE MILES
WCI - WIND CHILL INDEX
HX  - HEAT INDEX




USA.gov is the U.S. government's official web portal to all federal, state and local government web resources and services.